SWA3526 KONT-KAUS

Flight info

Callsign SWA3526
Flight time 1h 31m
Altitude 39000
Route RAJEE4 MTBAL CNERY BLH TFD SSO ELP FST DILLO LAIKS4
Aircraft B38M/M-SDE1FGHILORVWXY/HB1

Departure

Time 2026-05-05 14:03
Airport Ontario International Airport (KONT)

Arrival

Time 2026-05-05 15:34
Airport Austin Bergstrom International Airport (KAUS)
Time Latitude Longitude Altitude Speed Heading
2026-05-05 13:42 34.05986 -117.58924 939 ft 0 kts 23°
2026-05-05 13:53 34.05978 -117.58928 940 ft 4 kts 16°
2026-05-05 13:53 34.05954 -117.58927 938 ft 4 kts 338°
2026-05-05 13:54 34.05933 -117.58924 936 ft 3 kts 23°
2026-05-05 13:54 34.05910 -117.58939 937 ft 4 kts 40°
2026-05-05 13:54 34.05894 -117.58964 935 ft 4 kts 68°
2026-05-05 13:54 34.05889 -117.58994 935 ft 4 kts 95°
2026-05-05 13:55 34.05895 -117.59026 937 ft 4 kts 106°
2026-05-05 13:55 34.05900 -117.59055 936 ft 2 kts 91°
2026-05-05 13:55 34.05900 -117.59056 936 ft 0 kts 91°
2026-05-05 13:59 34.05900 -117.59031 937 ft 6 kts 91°
2026-05-05 13:59 34.05859 -117.58986 935 ft 13 kts 175°
2026-05-05 14:00 34.05800 -117.58783 938 ft 17 kts 91°
2026-05-05 14:00 34.05800 -117.58701 938 ft 14 kts 90°
2026-05-05 14:00 34.05801 -117.58513 936 ft 21 kts 90°
2026-05-05 14:00 34.05800 -117.58338 934 ft 11 kts 90°
2026-05-05 14:01 34.05794 -117.58289 934 ft 1 kts 112°
2026-05-05 14:01 34.05788 -117.58282 937 ft 0 kts 136°
2026-05-05 14:01 34.05771 -117.58273 933 ft 5 kts 171°
2026-05-05 14:01 34.05712 -117.58271 934 ft 11 kts 179°
2026-05-05 14:02 34.05687 -117.58327 936 ft 9 kts 274°
2026-05-05 14:02 34.05689 -117.58573 936 ft 66 kts 270°
2026-05-05 14:02 34.05688 -117.59454 932 ft 140 kts 270°
2026-05-05 14:02 34.05686 -117.60820 1264 ft 174 kts 271°
2026-05-05 14:03 34.05704 -117.62336 2125 ft 186 kts 269°
2026-05-05 14:03 34.05480 -117.63878 2985 ft 195 kts 244°
2026-05-05 14:03 34.04467 -117.65024 3327 ft 219 kts 203°
2026-05-05 14:03 34.02889 -117.65114 3684 ft 244 kts 164°
2026-05-05 14:04 34.01511 -117.63932 4594 ft 242 kts 131°
2026-05-05 14:04 34.00335 -117.62422 5384 ft 255 kts 138°
2026-05-05 14:04 33.98979 -117.60924 5959 ft 273 kts 139°
2026-05-05 14:04 33.97558 -117.59356 6656 ft 279 kts 138°
2026-05-05 14:05 33.96122 -117.57765 6908 ft 281 kts 139°
2026-05-05 14:05 33.94679 -117.56163 7000 ft 281 kts 139°
2026-05-05 14:05 33.93231 -117.54555 7171 ft 283 kts 139°
2026-05-05 14:05 33.91760 -117.52955 7520 ft 284 kts 144°
2026-05-05 14:06 33.90158 -117.51601 8512 ft 284 kts 144°
2026-05-05 14:06 33.88910 -117.49768 9297 ft 291 kts 113°
2026-05-05 14:06 33.88475 -117.47381 10137 ft 297 kts 94°
2026-05-05 14:06 33.88281 -117.44889 10935 ft 300 kts 97°
2026-05-05 14:07 33.88048 -117.42319 11448 ft 318 kts 97°
2026-05-05 14:07 33.87787 -117.39609 11941 ft 333 kts 97°
2026-05-05 14:07 33.87513 -117.36804 12562 ft 343 kts 97°
2026-05-05 14:07 33.87236 -117.33931 13445 ft 346 kts 97°
2026-05-05 14:08 33.86958 -117.31067 14209 ft 352 kts 97°
2026-05-05 14:08 33.86672 -117.28125 15004 ft 355 kts 97°
2026-05-05 14:08 33.86383 -117.25161 15823 ft 359 kts 97°
2026-05-05 14:08 33.86091 -117.22158 16608 ft 364 kts 97°
2026-05-05 14:09 33.85794 -117.19120 17394 ft 368 kts 97°
2026-05-05 14:09 33.85492 -117.16041 18176 ft 372 kts 97°
2026-05-05 14:09 33.85189 -117.12959 18845 ft 376 kts 97°
2026-05-05 14:09 33.84879 -117.09813 19511 ft 379 kts 98°
2026-05-05 14:10 33.84569 -117.06663 20110 ft 384 kts 98°
2026-05-05 14:10 33.84257 -117.03515 20722 ft 387 kts 98°
2026-05-05 14:10 33.83936 -117.00284 21367 ft 390 kts 98°
2026-05-05 14:10 33.83613 -116.97028 21999 ft 394 kts 98°
2026-05-05 14:11 33.83285 -116.93740 22617 ft 397 kts 99°
2026-05-05 14:11 33.82953 -116.90430 23223 ft 401 kts 99°
2026-05-05 14:11 33.82618 -116.87089 23767 ft 404 kts 99°
2026-05-05 14:11 33.82279 -116.83710 24195 ft 409 kts 100°
2026-05-05 14:12 33.81932 -116.80282 24639 ft 414 kts 100°
2026-05-05 14:12 33.81586 -116.76853 25112 ft 418 kts 100°
2026-05-05 14:12 33.81233 -116.73365 25546 ft 422 kts 100°
2026-05-05 14:12 33.80874 -116.69835 26001 ft 426 kts 101°
2026-05-05 14:13 33.80516 -116.66326 26425 ft 430 kts 101°
2026-05-05 14:13 33.80150 -116.62745 26826 ft 434 kts 101°
2026-05-05 14:13 33.79779 -116.59122 27232 ft 438 kts 101°
2026-05-05 14:13 33.79403 -116.55458 27540 ft 442 kts 101°
2026-05-05 14:14 33.79024 -116.51783 27915 ft 446 kts 102°
2026-05-05 14:14 33.78637 -116.48060 28238 ft 450 kts 102°
2026-05-05 14:14 33.78252 -116.44331 28680 ft 453 kts 102°
2026-05-05 14:14 33.77858 -116.40552 29013 ft 458 kts 102°
2026-05-05 14:15 33.77462 -116.36748 29378 ft 462 kts 103°
2026-05-05 14:15 33.77057 -116.32882 29609 ft 469 kts 103°
2026-05-05 14:15 33.76647 -116.28982 29987 ft 472 kts 103°
2026-05-05 14:15 33.76234 -116.25057 30248 ft 476 kts 104°
2026-05-05 14:16 33.75821 -116.21150 30529 ft 479 kts 104°
2026-05-05 14:16 33.75401 -116.17186 30844 ft 482 kts 104°
2026-05-05 14:16 33.74975 -116.13177 31155 ft 485 kts 104°
2026-05-05 14:16 33.74544 -116.09138 31467 ft 488 kts 104°
2026-05-05 14:17 33.74109 -116.05072 31769 ft 491 kts 104°
2026-05-05 14:17 33.73671 -116.00988 32066 ft 495 kts 104°
2026-05-05 14:17 33.73229 -115.96882 32360 ft 498 kts 104°
2026-05-05 14:17 33.72782 -115.92740 32631 ft 501 kts 105°
2026-05-05 14:18 33.72332 -115.88588 32873 ft 505 kts 105°
2026-05-05 14:18 33.71877 -115.84397 33178 ft 507 kts 105°
2026-05-05 14:18 33.71422 -115.80222 33450 ft 511 kts 105°
2026-05-05 14:18 33.70952 -115.75927 33739 ft 514 kts 105°
2026-05-05 14:19 33.70490 -115.71720 34004 ft 516 kts 105°
2026-05-05 14:19 33.70014 -115.67387 34288 ft 517 kts 105°
2026-05-05 14:19 33.69548 -115.63158 34495 ft 520 kts 106°
2026-05-05 14:19 33.69224 -115.60242 34595 ft 523 kts 106°
2026-05-05 14:20 33.68590 -115.54523 35015 ft 523 kts 106°
2026-05-05 14:20 33.68110 -115.50205 35395 ft 521 kts 105°
2026-05-05 14:20 33.67627 -115.45890 35750 ft 520 kts 105°
2026-05-05 14:20 33.67145 -115.41594 36047 ft 519 kts 105°
2026-05-05 14:21 33.66662 -115.37301 36405 ft 517 kts 105°
2026-05-05 14:21 33.66344 -115.34474 36635 ft 516 kts 105°
2026-05-05 14:21 33.65862 -115.30222 36965 ft 514 kts 106°
2026-05-05 14:21 33.65382 -115.25988 37250 ft 514 kts 105°
2026-05-05 14:22 33.64735 -115.20308 37668 ft 512 kts 105°
2026-05-05 14:22 33.64414 -115.17505 37876 ft 511 kts 105°
2026-05-05 14:22 33.63931 -115.13287 38182 ft 510 kts 105°
2026-05-05 14:22 33.63446 -115.09072 38479 ft 508 kts 105°
2026-05-05 14:23 33.62963 -115.04880 38728 ft 507 kts 105°
2026-05-05 14:23 33.62480 -115.00707 38894 ft 507 kts 105°
2026-05-05 14:23 33.61506 -114.92334 38883 ft 507 kts 105°
2026-05-05 14:24 33.60523 -114.83926 38942 ft 511 kts 105°
2026-05-05 14:24 33.59438 -114.75530 38923 ft 502 kts 113°
2026-05-05 14:25 33.57568 -114.67509 38935 ft 501 kts 114°
2026-05-05 14:25 33.55670 -114.59472 38934 ft 500 kts 114°
2026-05-05 14:26 33.53764 -114.51448 38930 ft 500 kts 114°
2026-05-05 14:26 33.51851 -114.43417 38924 ft 500 kts 114°
2026-05-05 14:27 33.49949 -114.35462 38913 ft 501 kts 115°
2026-05-05 14:27 33.48029 -114.27451 38921 ft 501 kts 115°
2026-05-05 14:28 33.46098 -114.19421 38925 ft 500 kts 115°
2026-05-05 14:28 33.42862 -114.06066 38902 ft 500 kts 116°
2026-05-05 14:29 33.38945 -113.90024 38952 ft 504 kts 115°
2026-05-05 14:29 33.35041 -113.73934 38930 ft 505 kts 116°
2026-05-05 14:30 33.31057 -113.57722 38949 ft 509 kts 116°
2026-05-05 14:30 33.27057 -113.41541 38907 ft 508 kts 117°
2026-05-05 14:31 33.23022 -113.25388 38882 ft 509 kts 117°
2026-05-05 14:31 33.18975 -113.09245 38885 ft 512 kts 116°
2026-05-05 14:32 33.14914 -112.93046 38914 ft 510 kts 117°
2026-05-05 14:32 33.10793 -112.76837 38891 ft 509 kts 118°
2026-05-05 14:33 33.06680 -112.60725 38903 ft 509 kts 117°
2026-05-05 14:33 33.02538 -112.44561 38882 ft 510 kts 117°
2026-05-05 14:34 32.98410 -112.28563 38911 ft 509 kts 118°
2026-05-05 14:34 32.94242 -112.12469 38862 ft 509 kts 118°
2026-05-05 14:35 32.90045 -111.96372 38901 ft 510 kts 119°
2026-05-05 14:35 32.87621 -111.86233 38923 ft 515 kts 115°
2026-05-05 14:36 32.85823 -111.77992 38890 ft 514 kts 116°
2026-05-05 14:36 32.83989 -111.69762 38912 ft 515 kts 116°
2026-05-05 14:37 32.82151 -111.61544 38915 ft 515 kts 116°
2026-05-05 14:37 32.80309 -111.53335 38896 ft 515 kts 116°
2026-05-05 14:38 32.76679 -111.37269 38944 ft 515 kts 116°
2026-05-05 14:38 32.72991 -111.20946 38960 ft 516 kts 116°
2026-05-05 14:39 32.69241 -111.04487 38976 ft 516 kts 117°
2026-05-05 14:39 32.65449 -110.88114 38944 ft 516 kts 117°
2026-05-05 14:40 32.61650 -110.71671 38935 ft 517 kts 117°
2026-05-05 14:40 32.57840 -110.55278 38959 ft 517 kts 117°
2026-05-05 14:41 32.53997 -110.38896 38956 ft 516 kts 118°
2026-05-05 14:41 32.50072 -110.22380 38939 ft 516 kts 118°
2026-05-05 14:42 32.46180 -110.05990 38915 ft 519 kts 117°
2026-05-05 14:42 32.42265 -109.89542 38908 ft 521 kts 117°
2026-05-05 14:43 32.38301 -109.73077 38889 ft 521 kts 117°
2026-05-05 14:43 32.34284 -109.56507 38885 ft 526 kts 117°
2026-05-05 14:44 32.30271 -109.39931 38872 ft 524 kts 117°
2026-05-05 14:44 32.26880 -109.25826 38881 ft 530 kts 111°
2026-05-05 14:45 32.25649 -109.17177 38912 ft 534 kts 109°
2026-05-05 14:45 32.23284 -109.00930 38865 ft 530 kts 110°
2026-05-05 14:46 32.20798 -108.83067 38854 ft 528 kts 109°
2026-05-05 14:46 32.19596 -108.74512 38985 ft 527 kts 110°
2026-05-05 14:46 32.18360 -108.66018 38983 ft 526 kts 109°
2026-05-05 14:47 32.15888 -108.49017 38934 ft 525 kts 110°
2026-05-05 14:47 32.13395 -108.32094 38838 ft 524 kts 110°
2026-05-05 14:48 32.10878 -108.15166 38844 ft 524 kts 110°
2026-05-05 14:48 32.08372 -107.98267 38842 ft 524 kts 110°
2026-05-05 14:49 32.05799 -107.81320 38847 ft 523 kts 110°
2026-05-05 14:49 32.03231 -107.64475 38932 ft 522 kts 110°
2026-05-05 14:50 32.00666 -107.47640 38873 ft 522 kts 110°
2026-05-05 14:50 31.98064 -107.30907 38820 ft 520 kts 111°
2026-05-05 14:51 31.95429 -107.14188 38818 ft 520 kts 111°
2026-05-05 14:51 31.92776 -106.97387 38828 ft 523 kts 110°
2026-05-05 14:52 31.90105 -106.80556 39034 ft 524 kts 110°
2026-05-05 14:52 31.87391 -106.63727 39030 ft 524 kts 111°
2026-05-05 14:53 31.84638 -106.46817 39025 ft 526 kts 110°
2026-05-05 14:53 31.81892 -106.29960 38971 ft 526 kts 111°
2026-05-05 14:54 31.79953 -106.21548 38995 ft 518 kts 116°
2026-05-05 14:54 31.76479 -106.07463 38895 ft 517 kts 117°
2026-05-05 14:55 31.72447 -105.91323 38830 ft 517 kts 117°
2026-05-05 14:55 31.68407 -105.75181 38823 ft 519 kts 116°
2026-05-05 14:56 31.64338 -105.58950 38784 ft 520 kts 116°
2026-05-05 14:56 31.60203 -105.42625 38821 ft 523 kts 116°
2026-05-05 14:57 31.56009 -105.26175 38808 ft 523 kts 115°
2026-05-05 14:57 31.51818 -105.09798 38821 ft 526 kts 115°
2026-05-05 14:58 31.47610 -104.93407 38814 ft 526 kts 115°
2026-05-05 14:58 31.43352 -104.77033 38804 ft 526 kts 115°
2026-05-05 14:59 31.39087 -104.60656 38808 ft 526 kts 116°
2026-05-05 14:59 31.34805 -104.44357 38814 ft 526 kts 115°
2026-05-05 15:00 31.31216 -104.30774 38804 ft 526 kts 116°
2026-05-05 15:00 31.26882 -104.14425 38777 ft 525 kts 114°
2026-05-05 15:01 31.22565 -103.98190 38784 ft 523 kts 115°
2026-05-05 15:01 31.18239 -103.81995 38818 ft 523 kts 115°
2026-05-05 15:02 31.13863 -103.65820 38835 ft 526 kts 115°
2026-05-05 15:02 31.09462 -103.49555 38820 ft 527 kts 115°
2026-05-05 15:03 31.05005 -103.33108 38746 ft 528 kts 115°
2026-05-05 15:03 31.00535 -103.16856 38763 ft 527 kts 115°
2026-05-05 15:04 30.96052 -103.00570 38771 ft 527 kts 114°
2026-05-05 15:04 30.95241 -102.96389 38744 ft 537 kts 99°
2026-05-05 15:04 30.95149 -102.92028 38803 ft 540 kts 95°
2026-05-05 15:05 30.94604 -102.70036 38766 ft 542 kts 95°
2026-05-05 15:06 30.94186 -102.52395 38766 ft 541 kts 96°
2026-05-05 15:06 30.93733 -102.34988 38762 ft 541 kts 95°
2026-05-05 15:07 30.93282 -102.17460 38763 ft 539 kts 95°
2026-05-05 15:07 30.92793 -102.00036 38794 ft 538 kts 95°
2026-05-05 15:08 30.92282 -101.82731 38794 ft 538 kts 95°
2026-05-05 15:08 30.91770 -101.65330 38796 ft 538 kts 95°
2026-05-05 15:09 30.91212 -101.47958 38798 ft 537 kts 95°
2026-05-05 15:09 30.90617 -101.30575 38818 ft 537 kts 95°
2026-05-05 15:10 30.90019 -101.13189 38902 ft 538 kts 95°
2026-05-05 15:10 30.89404 -100.95886 38874 ft 538 kts 95°
2026-05-05 15:11 30.88749 -100.78502 38831 ft 538 kts 96°
2026-05-05 15:11 30.88069 -100.61183 38848 ft 538 kts 95°
2026-05-05 15:12 30.87383 -100.43783 38831 ft 539 kts 95°
2026-05-05 15:12 30.86673 -100.26400 38818 ft 539 kts 95°
2026-05-05 15:13 30.85944 -100.08970 38811 ft 539 kts 95°
2026-05-05 15:13 30.85173 -99.91582 38800 ft 537 kts 96°
2026-05-05 15:14 30.84382 -99.74258 38810 ft 537 kts 96°
2026-05-05 15:14 30.83806 -99.61862 38022 ft 538 kts 96°
2026-05-05 15:14 30.83597 -99.57487 36947 ft 546 kts 96°
2026-05-05 15:15 30.83387 -99.53084 35921 ft 553 kts 96°
2026-05-05 15:15 30.83172 -99.48598 35016 ft 558 kts 96°
2026-05-05 15:15 30.82956 -99.44097 34450 ft 555 kts 95°
2026-05-05 15:15 30.82741 -99.39649 34108 ft 546 kts 96°
2026-05-05 15:16 30.82527 -99.35267 33711 ft 540 kts 96°
2026-05-05 15:16 30.82314 -99.30925 33094 ft 537 kts 95°
2026-05-05 15:16 30.82099 -99.26583 32411 ft 537 kts 95°
2026-05-05 15:16 30.81883 -99.22245 31705 ft 537 kts 95°
2026-05-05 15:17 30.81666 -99.17909 30926 ft 539 kts 95°
2026-05-05 15:17 30.81449 -99.13586 30091 ft 543 kts 95°
2026-05-05 15:17 30.81226 -99.09198 29117 ft 546 kts 95°
2026-05-05 15:17 30.80999 -99.04761 28216 ft 544 kts 94°
2026-05-05 15:18 30.80778 -99.00440 27472 ft 530 kts 94°
2026-05-05 15:18 30.80559 -98.96206 26658 ft 519 kts 95°
2026-05-05 15:18 30.80344 -98.92056 25866 ft 509 kts 95°
2026-05-05 15:18 30.80131 -98.87991 25076 ft 500 kts 95°
2026-05-05 15:19 30.79921 -98.83992 24306 ft 493 kts 95°
2026-05-05 15:19 30.79710 -98.80035 23527 ft 486 kts 96°
2026-05-05 15:19 30.79321 -98.76172 22735 ft 475 kts 99°
2026-05-05 15:19 30.78922 -98.72444 22213 ft 461 kts 99°
2026-05-05 15:20 30.78545 -98.68801 21746 ft 446 kts 99°
2026-05-05 15:20 30.78179 -98.65220 21250 ft 441 kts 98°
2026-05-05 15:20 30.77818 -98.61681 20738 ft 441 kts 98°
2026-05-05 15:20 30.77460 -98.58166 20239 ft 440 kts 98°
2026-05-05 15:21 30.77099 -98.54630 19754 ft 439 kts 98°
2026-05-05 15:21 30.76740 -98.51127 19269 ft 437 kts 98°
2026-05-05 15:21 30.76379 -98.47608 18778 ft 436 kts 98°
2026-05-05 15:21 30.75968 -98.44095 18255 ft 434 kts 105°
2026-05-05 15:22 30.74957 -98.40890 17800 ft 420 kts 119°
2026-05-05 15:22 30.73782 -98.37851 17473 ft 403 kts 118°
2026-05-05 15:22 30.72640 -98.34907 17051 ft 397 kts 118°
2026-05-05 15:22 30.71502 -98.32004 16606 ft 396 kts 118°
2026-05-05 15:23 30.70357 -98.29097 16181 ft 394 kts 118°
2026-05-05 15:23 30.69216 -98.26205 15748 ft 391 kts 118°
2026-05-05 15:23 30.68099 -98.23381 15362 ft 377 kts 118°
2026-05-05 15:23 30.67018 -98.20650 14937 ft 366 kts 118°
2026-05-05 15:24 30.65967 -98.17993 14523 ft 357 kts 118°
2026-05-05 15:24 30.64955 -98.15440 14103 ft 348 kts 118°
2026-05-05 15:24 30.63948 -98.12899 13563 ft 345 kts 117°
2026-05-05 15:24 30.62949 -98.10381 12963 ft 341 kts 117°
2026-05-05 15:25 30.61965 -98.07904 12468 ft 335 kts 117°
2026-05-05 15:25 30.60999 -98.05475 11937 ft 331 kts 117°
2026-05-05 15:25 30.60045 -98.03075 11440 ft 326 kts 117°
2026-05-05 15:25 30.59103 -98.00706 10953 ft 321 kts 117°
2026-05-05 15:26 30.58169 -97.98360 10471 ft 316 kts 117°
2026-05-05 15:26 30.57255 -97.96066 9965 ft 312 kts 117°
2026-05-05 15:26 30.56331 -97.93780 9322 ft 312 kts 120°
2026-05-05 15:26 30.55075 -97.91783 8802 ft 303 kts 134°
2026-05-05 15:27 30.53696 -97.89933 8212 ft 302 kts 134°
2026-05-05 15:27 30.52356 -97.88118 7722 ft 298 kts 133°
2026-05-05 15:27 30.51021 -97.86304 7221 ft 294 kts 134°
2026-05-05 15:27 30.49696 -97.84500 6696 ft 293 kts 134°
2026-05-05 15:28 30.48390 -97.82722 6221 ft 289 kts 135°
2026-05-05 15:28 30.47098 -97.80963 5708 ft 286 kts 135°
2026-05-05 15:28 30.45813 -97.79207 5241 ft 282 kts 135°
2026-05-05 15:28 30.44562 -97.77504 5090 ft 270 kts 135°
2026-05-05 15:29 30.43369 -97.75884 4783 ft 258 kts 137°
2026-05-05 15:29 30.42054 -97.74621 4482 ft 241 kts 155°
2026-05-05 15:29 30.40635 -97.73644 4186 ft 233 kts 154°
2026-05-05 15:29 30.39272 -97.72697 3913 ft 225 kts 154°
2026-05-05 15:30 30.37958 -97.71779 3664 ft 216 kts 154°
2026-05-05 15:30 30.36713 -97.70902 3455 ft 201 kts 155°
2026-05-05 15:30 30.35542 -97.70085 3204 ft 191 kts 154°
2026-05-05 15:30 30.34434 -97.69309 2965 ft 180 kts 154°
2026-05-05 15:31 30.33414 -97.68614 2787 ft 157 kts 162°
2026-05-05 15:31 30.32457 -97.68316 2586 ft 134 kts 179°
2026-05-05 15:31 30.31533 -97.68242 2471 ft 134 kts 182°
2026-05-05 15:31 30.30593 -97.68198 2287 ft 133 kts 183°
2026-05-05 15:32 30.29665 -97.68164 2108 ft 132 kts 182°
2026-05-05 15:32 30.28750 -97.68135 1926 ft 132 kts 183°
2026-05-05 15:32 30.27832 -97.68108 1745 ft 131 kts 183°
2026-05-05 15:32 30.26930 -97.68084 1581 ft 132 kts 183°
2026-05-05 15:33 30.26006 -97.68048 1401 ft 135 kts 180°
2026-05-05 15:33 30.25049 -97.68027 1299 ft 138 kts 184°
2026-05-05 15:33 30.24109 -97.68009 1128 ft 130 kts 184°
2026-05-05 15:33 30.23157 -97.67996 943 ft 139 kts 177°
2026-05-05 15:34 30.22211 -97.67956 731 ft 135 kts 178°
2026-05-05 15:34 30.21268 -97.67929 526 ft 136 kts 182°
2026-05-05 15:34 30.20429 -97.67908 506 ft 93 kts 179°
2026-05-05 15:34 30.19997 -97.67884 502 ft 43 kts 160°
2026-05-05 15:35 30.19885 -97.67699 502 ft 29 kts 86°
2026-05-05 15:35 30.19893 -97.67439 505 ft 31 kts 88°
2026-05-05 15:35 30.19897 -97.67221 504 ft 29 kts 89°
2026-05-05 15:35 30.19900 -97.67055 504 ft 19 kts 88°
2026-05-05 15:36 30.19903 -97.66881 504 ft 25 kts 89°
2026-05-05 15:36 30.19912 -97.66709 504 ft 13 kts 59°
2026-05-05 15:36 30.19990 -97.66706 504 ft 11 kts 307°
2026-05-05 15:36 30.20017 -97.66796 504 ft 10 kts 322°
2026-05-05 15:37 30.20075 -97.66783 504 ft 7 kts 18°
2026-05-05 15:37 30.20126 -97.66766 504 ft 6 kts 15°
2026-05-05 15:37 30.20139 -97.66762 504 ft 0 kts 16°